Torna al catalogo

STARLINK-5570

AttivoComunicazioniVLEO
NORAD 55433·PAYLOAD·🇺🇸 United States

Lanciato Jan 31, 2023 da Vandenberg Space Force Base

Loading…

Prossimi Passaggi (prossime 24 ore)

TLE

AggiornatoSource: CelesTrak SupGP

Epoca: Sep 14, 2026, 21:18 UTC

1 55433C 23014AU  26257.88798611 -.00052119  00000+0 -43687-2 0  2576
2 55433  70.0020 347.3167 0003256 271.5285   6.2665 14.98347888    14

Traccia STARLINK-5570 in tempo reale con AllMySat

Download on the App Store